This demonstration page uses our WeatherBlox Daily Observations layout. Learn more.

41.55636, -103.73856

Hourly Observations for March 8, 2015

Temp ( °F °C ) Dew Point ( °F °C ) Humidity (%) Winds ( mph kmh ) Pressure ( in mb ) Visibility ( mi km ) Precip ( " mm )
12:53 am 00:53 Clear 32 0 24 -4.4 73 73 NW 3 6 30.11 1020 10 16.0934 0 0
1:53 am 01:53 Clear 32 0 25 -3.9 75 75 Calm 30.13 1020 10 16.0934 0 0
3:53 am 03:53 Clear 31 -0.6 24 -4.4 76 76 NW 8 13 30.14 1021 10 16.0934 0 0
4:53 am 04:53 Clear 29 -1.7 23 -5 78 78 W 7 11 30.16 1021 10 16.0934 0 0
5:53 am 05:53 Clear 24 -4.4 21 -6.1 88 88 NW 8 13 30.18 1022 10 16.0934 0 0
6:53 am 06:53 Clear 25 -3.9 22 -5.6 88 88 NW 7 11 30.22 1023 10 16.0934 0 0
7:53 am 07:53 Sunny 26 -3.3 23 -5 88 88 WNW 7 11 30.23 1024 10 16.0934 0 0
8:53 am 08:53 Sunny 32 0 26 -3.3 79 79 NW 6 9 30.25 1024 10 16.0934 0 0
9:53 am 09:53 Sunny 39 3.9 27 -2.8 62 62 WNW 5 7 30.24 1024 10 16.0934 0 0
10:53 am 10:53 Sunny 43 6.1 27 -2.8 53 53 W 6 9 30.23 1024 10 16.0934 0 0
11:53 am 11:53 Sunny 47 8.3 26 -3.3 44 44 Calm 30.21 1023 10 16.0934 0 0
12:53 pm 12:53 Sunny 50 10 27 -3 40 40 VRB 3 6 30.09 1019 10 16.0934 0 0
1:53 pm 13:53 Sunny 53 11.7 25 -3.9 34 34 Calm 30.13 1020 10 16.0934 0 0
2:53 pm 14:53 Sunny 54 12.2 21 -6.1 28 28 S 3 6 30.1 1019 10 16.0934 0 0
3:53 pm 15:53 Sunny 57 13.9 23 -5 27 27 SE 10 17 30.08 1019 10 16.0934 0 0
4:53 pm 16:53 Sunny 56 13.3 23 -5 28 28 ESE 9 15 30.07 1018 10 16.0934 0 0
5:53 pm 17:53 Sunny 55 12.8 24 -4.4 30 30 ESE 10 17 30.07 1018 10 16.0934 0 0
6:53 pm 18:53 Clear 45 7.2 22 -5.6 40 40 ESE 9 15 30.09 1019 10 16.0934 0 0
7:53 pm 19:53 Clear 39 3.9 21 -6.1 48 48 E 7 11 30.11 1020 10 16.0934 0 0
8:53 pm 20:53 Clear 34 1.1 20 -6.7 56 56 E 7 11 30.12 1020 10 16.0934 0 0
9:53 pm 21:53 Clear 34 1.1 21 -6.1 59 59 E 7 11 30.1 1019 10 16.0934 0 0
10:53 pm 22:53 Clear 35 1.7 22 -5.6 59 59 ESE 3 6 30.09 1019 10 16.0934 0 0
11:53 pm 23:53 Clear 30 -1.1 20 -6.7 66 66 ENE 5 7 30.08 1019 10 16.0934 0 0

Powered by AerisWeather